This is the latest recevied weather packets stored in our database for station/object KB2EAR-13. If no packets are shown the sender has not sent any weather packets the latest 10 day(s).
| Time | Temp. | Humidity | Pressure | Rain* | Wind** | Luminosity | Snow |
|---|---|---|---|---|---|---|---|
| 1788108617 | 25.56° C | 76% | 1021.7 hPa | 0 mm | - | - | - |
| 1788108317 | 25.56° C | 75% | 1021.7 hPa | 0 mm | - | - | - |
| 1788108017 | 26.11° C | 75% | 1021.8 hPa | 0 mm | - | - | - |
| 1788107717 | 26.11° C | 75% | 1021.8 hPa | 0 mm | - | - | - |
| 1788107417 | 26.11° C | 75% | 1021.9 hPa | 0 mm | - | - | - |
| 1788107117 | 26.11° C | 76% | 1021.9 hPa | 0 mm | - | - | - |
| 1788106817 | 25.56° C | 76% | 1021.7 hPa | 0 mm | - | - | - |
| 1788106522 | 25° C | 76% | 1021.8 hPa | 0 mm | - | - | - |
| 1788106217 | 25° C | 77% | 1022 hPa | 0 mm | - | - | - |
| 1788105918 | 25° C | 77% | 1022.1 hPa | 0 mm | - | - | - |
| 1788105714 | 24.44° C | 78% | 1022 hPa | 0 mm | - | - | - |
| 1788105634 | 24.44° C | 79% | 1022 hPa | 0 mm | - | - | - |
| 1788105317 | 24.44° C | 79% | 1022 hPa | 0 mm | - | - | - |
| 1788105017 | 23.89° C | 79% | 1022.1 hPa | 0 mm | - | - | - |
| 1788104717 | 23.89° C | 80% | 1022.3 hPa | 0 mm | - | - | - |
| 1788104417 | 23.33° C | 81% | 1022.2 hPa | 0 mm | - | - | - |
| 1788104117 | 23.33° C | 82% | 1022.3 hPa | 0 mm | - | - | - |
| 1788103817 | 22.78° C | 82% | 1022.3 hPa | 0 mm | - | - | - |
| 1788103517 | 22.78° C | 82% | 1022.5 hPa | 0 mm | - | - | - |
| 1788103217 | 22.78° C | 82% | 1022.5 hPa | 0 mm | - | - | - |
| 1788102917 | 22.78° C | 83% | 1022.5 hPa | 0 mm | - | - | - |
| 1788102617 | 22.22° C | 85% | 1022.4 hPa | 0 mm | - | - | - |
| 1788102317 | 21.67° C | 86% | 1022.4 hPa | 0 mm | - | - | - |
| 1788102017 | 21.67° C | 87% | 1022.5 hPa | 0 mm | - | - | - |
| 1788101717 | 21.11° C | 87% | 1022.6 hPa | 0 mm | - | - | - |
* Rain latest hour (hover to see other rain measurements)
** Current wind speed in m/s (hover to see current wind gust speed)